Wind_Speed
13 13 14 14 16 19 19 19 19 19 19 19 18 18 18 19 20 20 20 20 20 20 20 20 21 21 21 22 22 23 23 24 24 24 24 24 24 24 24 24 23 24
12 12 13 13 14 16 18 18 18 18 18 18 17 17 16 17 18 19 19 19 19 19 19 19 20 20 20 21 22 22 23 23 24 24 25 25 25 25 25 25 25 25
10 10 11 11 12 13 15 16 17 16 16 17 16 16 15 15 16 16 17 18 18 18 18 18 19 19 19 20 21 21 22 22 23 24 24 24 25 25 26 26 26 26
8 8 9 9 9 11 12 13 14 15 15 15 15 14 13 13 13 14 15 16 17 17 17 17 17 17 18 19 19 19 20 21 21 23 23 24 24 25 26 26 27 27
5 6 7 7 6 7 9 11 12 12 12 13 13 13 12 11 11 12 12 13 14 15 15 15 16 16 16 17 17 18 18 19 20 21 22 23 23 24 25 26 26 27
2 2 3 4 4 4 5 8 10 11 11 10 11 11 10 9 9 9 10 10 11 12 13 13 13 14 15 15 16 16 17 18 19 19 20 21 22 23 24 25 25 26
6 3 1 1 2 2 2 3 6 8 9 9 9 10 10 9 7 7 7 8 9 9 10 10 11 12 13 14 15 15 16 17 17 18 19 20 20 21 22 24 24 25
11 8 5 3 2 1 1 0 2 3 6 7 8 9 9 9 8 6 5 6 7 7 8 8 9 10 11 12 13 13 14 15 16 17 17 18 19 20 21 22 23 24
13 13 9 6 5 5 4 4 3 3 3 5 6 7 8 8 8 7 5 4 4 5 6 7 8 8 9 10 11 12 12 13 14 15 15 16 17 17 18 20 21 22
15 16 13 10 9 9 9 8 7 6 5 5 5 5 6 6 6 7 6 5 4 3 4 5 6 7 8 9 9 10 10 11 12 13 14 14 14 15 16 17 18 19
17 18 16 14 13 12 11 10 10 9 7 6 6 6 5 4 4 4 4 4 3 3 3 3 3 4 5 6 7 8 8 9 10 11 12 12 13 13 14 14 15 16
18 19 18 17 17 16 14 12 11 11 9 8 9 8 6 4 3 2 1 2 2 2 1 1 1 2 2 3 4 5 6 6 7 8 9 9 10 11 12 13 14 14
20 21 21 20 20 20 19 16 13 13 13 11 9 10 9 7 6 5 3 2 1 0 1 1 2 1 1 0 2 3 3 4 4 5 5 6 7 8 9 11 12 12
23 24 24 24 23 23 22 20 17 15 16 15 12 11 11 11 10 9 7 5 4 3 2 3 3 4 3 3 2 0 1 2 2 2 3 3 4 5 7 8 9 10
26 26 26 27 27 26 25 24 21 18 18 18 17 15 14 14 15 15 12 10 8 6 5 5 5 6 6 5 5 4 3 1 1 0 1 2 3 4 5 6 7 9
29 28 29 29 29 29 29 27 25 22 21 21 21 19 17 17 19 19 17 15 13 11 10 8 8 8 8 7 6 5 5 4 4 3 2 2 3 4 5 6 7 8
33 31 30 31 31 31 31 31 29 27 24 23 22 23 22 21 22 22 21 19 18 16 14 12 11 11 11 10 9 8 7 6 6 6 5 5 4 4 5 6 7 8
36 35 33 32 32 33 33 34 33 31 28 26 24 25 25 24 24 24 23 22 20 20 18 16 14 14 14 14 13 12 11 10 9 8 8 7 7 7 6 6 6 8
38 37 36 35 35 36 37 37 36 35 33 31 27 26 26 26 25 25 25 24 22 22 23 21 18 17 18 18 17 16 15 14 13 11 10 9 9 9 9 8 8 8
40 39 39 39 38 39 40 40 39 38 38 35 32 30 29 29 29 28 28 28 26 24 24 22 21 21 21 22 22 21 20 18 17 16 15 13 12 12 12 11 10 10
44 43 43 43 42 42 42 43 42 41 40 38 36 35 33 33 33 33 32 32 29 26 24 22 22 23 24 24 25 26 25 23 20 19 19 18 16 15 14 13 13 12
47 46 46 46 45 44 44 44 44 43 42 41 40 39 38 37 37 36 36 35 32 29 26 24 25 26 25 26 28 29 29 28 25 22 22 21 20 19 18 17 16 15
49 47 46 47 47 46 45 44 44 43 43 43 42 42 41 40 40 39 39 38 36 33 30 28 28 28 27 27 28 29 30 31 30 27 25 23 22 21 21 21 20 19
52 49 46 47 48 47 47 47 46 45 44 43 42 42 42 42 42 42 42 40 38 37 36 34 32 31 29 28 27 27 29 32 32 31 29 27 25 24 23 24 24 23
56 52 48 48 51 51 51 51 49 48 47 45 42 41 41 42 44 45 44 41 41 44 42 38 35 34 32 30 29 28 29 31 32 32 29 27 26 26 25 25 26 26
61 58 53 51 53 55 54 52 51 50 50 48 47 46 45 44 46 48 47 45 46 48 45 40 38 37 36 34 32 31 31 32 32 31 29 27 26 26 26 26 28 30
Wind_Direction
59 57 58 68 80 86 87 86 83 81 79 76 75 73 68 64 62 61 63 65 67 69 69 68 69 68 66 66 65 65 65 64 64 64 63 63 62 62 62 61 60 59
69 62 58 61 70 82 89 91 90 88 86 83 80 77 73 68 66 63 63 63 64 65 66 66 66 65 64 63 61 60 60 60 60 60 60 59 59 59 60 60 60 60
71 66 62 62 66 75 84 90 93 93 92 91 87 83 78 72 70 67 65 64 63 64 64 64 64 64 64 63 61 58 57 56 56 57 56 56 56 55 56 56 57 58
66 61 61 62 67 74 80 86 92 94 95 96 94 91 85 79 74 71 69 67 65 63 63 63 63 63 64 64 62 60 57 55 54 54 54 53 52 52 52 53 53 54
63 57 56 58 64 73 80 87 93 95 94 95 97 97 93 88 83 77 73 71 69 66 63 63 62 61 62 61 61 60 58 57 54 53 52 51 49 49 49 49 50 51
18 47 46 50 57 66 80 90 97 100 98 95 98 100 99 97 94 90 84 78 74 71 66 63 61 59 58 58 56 55 55 55 55 52 50 49 47 46 46 46 47 47
297 288 294 6 38 54 73 96 102 104 105 103 102 104 104 102 99 98 96 90 84 79 73 66 61 57 55 53 52 50 49 49 51 51 50 47 45 44 43 43 43 44
291 284 268 261 279 326 352 198 146 123 117 117 115 112 110 109 107 103 100 98 92 86 81 73 65 59 53 50 48 46 44 43 44 47 48 47 44 41 40 39 40 41
274 276 270 261 263 269 277 269 240 220 182 147 132 125 119 116 116 114 110 106 99 89 83 77 71 65 57 52 47 43 41 39 39 40 42 44 44 41 39 37 37 37
253 261 262 259 261 266 272 268 254 246 231 199 174 151 137 126 119 121 121 121 122 114 97 85 76 69 63 58 52 46 41 38 36 35 35 36 39 40 39 37 36 35
243 250 255 257 258 263 270 269 256 249 247 232 216 195 167 149 132 120 121 121 122 125 126 118 105 91 80 71 62 54 48 42 38 35 32 30 29 30 33 34 34 33
240 242 249 256 260 263 268 270 259 246 245 246 235 223 210 198 195 189 148 128 109 97 107 138 142 137 122 105 89 76 64 54 47 41 35 30 25 21 21 23 26 28
241 238 242 250 257 261 263 265 259 243 237 242 241 235 234 230 230 241 239 221 218 342 336 315 307 296 286 135 109 102 91 72 59 50 40 32 24 18 14 13 14 17
243 239 241 247 251 254 257 259 256 244 236 238 237 233 238 241 242 246 247 242 240 249 271 287 290 295 299 300 302 307 117 100 72 45 30 21 14 11 8 5 4 4
243 242 242 247 250 250 252 255 255 247 240 240 239 235 237 243 245 246 248 247 242 245 259 269 275 279 285 288 293 292 280 243 209 255 332 337 342 347 350 351 350 350
243 243 243 246 250 250 250 251 252 248 243 242 242 239 238 243 246 248 251 251 248 249 254 259 264 270 274 276 279 281 281 274 263 254 252 272 297 315 325 331 334 336
243 244 244 245 247 249 249 250 249 247 242 240 243 244 242 242 245 248 252 255 257 260 260 260 261 262 266 270 272 272 272 269 266 261 256 255 263 276 296 312 321 325
244 244 243 243 245 247 248 249 248 245 241 239 242 244 243 242 244 247 249 252 258 265 269 269 266 263 263 265 266 268 269 268 266 260 256 259 262 265 273 287 304 315
245 242 240 241 243 245 247 247 246 244 242 240 240 239 236 236 239 244 246 247 251 259 265 268 269 269 268 265 262 263 265 269 272 268 260 254 255 260 265 270 280 295
243 240 239 242 243 244 244 244 245 244 243 242 241 238 233 232 234 237 241 245 247 249 252 257 263 267 267 266 264 262 263 265 269 273 272 265 257 255 258 262 270 281
242 241 242 244 244 242 240 241 243 244 243 242 242 241 237 234 234 235 237 242 244 242 241 245 255 261 262 262 261 260 260 262 265 270 274 275 271 265 262 263 267 273
243 243 242 242 242 240 239 240 241 243 243 242 242 243 242 238 237 238 240 241 241 240 238 239 248 254 256 257 258 258 259 260 263 267 270 273 276 276 274 271 269 270
241 243 242 242 242 240 240 242 242 243 246 246 244 244 245 243 240 240 241 241 241 241 238 236 241 247 249 251 256 259 261 261 261 263 264 264 269 275 277 276 274 274
238 240 240 239 239 238 239 241 242 243 246 248 248 246 245 246 246 243 241 241 241 240 240 238 239 242 243 246 250 255 260 262 263 264 262 258 259 265 271 273 274 274
236 238 237 234 233 234 237 239 240 241 244 246 247 247 245 244 245 243 241 240 239 239 240 241 241 241 241 241 243 246 251 256 260 264 264 259 257 263 268 269 270 270
235 236 236 233 231 232 234 237 238 240 242 242 243 245 244 243 244 243 241 239 239 241 242 242 242 241 240 240 240 242 245 249 253 257 259 255 254 258 262 262 259 258
Height
11037 11037 11036 11036 11035 11033 11033 11032 11032 11031 11030 11029 11029 11028 11027 11026 11025 11024 11023 11022 11021 11020 11019 11018 11017 11016 11015 11014 11013 11012 11011 11010 11009 11008 11008 11007 11006 11005 11004 11003 11002 11001
11038 11038 11037 11037 11036 11035 11034 11034 11033 11033 11032 11031 11030 11029 11029 11028 11027 11026 11026 11025 11024 11022 11021 11020 11019 11018 11017 11016 11016 11015 11013 11012 11011 11010 11009 11009 11008 11007 11006 11005 11004 11003
11039 11038 11038 11038 11037 11037 11036 11035 11034 11034 11033 11032 11032 11031 11030 11029 11029 11028 11027 11027 11026 11025 11024 11022 11021 11020 11020 11019 11018 11017 11016 11015 11014 11013 11011 11010 11010 11009 11008 11007 11006 11005
11039 11039 11039 11038 11038 11037 11036 11036 11035 11035 11034 11034 11033 11032 11031 11031 11030 11029 11029 11028 11027 11026 11025 11024 11023 11023 11022 11021 11020 11019 11018 11017 11016 11015 11014 11013 11012 11011 11010 11009 11008 11007
11039 11039 11039 11039 11038 11038 11037 11036 11036 11035 11035 11034 11033 11033 11032 11032 11031 11030 11030 11029 11029 11028 11027 11026 11025 11024 11023 11022 11022 11021 11020 11019 11018 11017 11016 11015 11014 11013 11012 11011 11010 11009
11038 11039 11039 11038 11038 11038 11037 11037 11036 11035 11035 11035 11034 11033 11033 11033 11032 11031 11031 11030 11029 11029 11028 11028 11027 11026 11025 11024 11023 11022 11022 11021 11020 11019 11018 11017 11016 11015 11014 11013 11012 11011
11038 11038 11038 11038 11038 11038 11038 11037 11037 11036 11035 11035 11035 11034 11033 11033 11033 11032 11032 11031 11030 11030 11029 11029 11028 11027 11026 11025 11024 11024 11023 11022 11021 11020 11019 11019 11018 11017 11016 11015 11014 11013
11036 11037 11038 11038 11038 11038 11037 11037 11037 11036 11035 11035 11034 11034 11033 11033 11033 11033 11032 11032 11031 11030 11030 11029 11029 11028 11027 11026 11026 11025 11024 11024 11023 11022 11021 11020 11019 11019 11018 11017 11016 11015
11035 11035 11036 11037 11037 11037 11037 11037 11036 11036 11036 11035 11034 11034 11034 11033 11033 11033 11033 11032 11032 11031 11031 11030 11030 11029 11028 11027 11027 11026 11026 11025 11024 11023 11023 11022 11021 11020 11019 11018 11018 11017
11033 11033 11034 11035 11035 11035 11036 11036 11035 11035 11035 11035 11034 11034 11033 11033 11033 11032 11032 11032 11032 11032 11031 11031 11030 11030 11029 11028 11028 11027 11027 11026 11026 11025 11024 11023 11022 11021 11021 11020 11019 11019
11031 11032 11032 11033 11033 11034 11034 11034 11034 11034 11034 11034 11034 11033 11033 11033 11033 11032 11032 11032 11031 11031 11031 11031 11030 11030 11030 11029 11029 11028 11028 11027 11027 11026 11025 11025 11024 11023 11022 11022 11021 11020
11029 11030 11030 11031 11031 11032 11032 11033 11033 11033 11033 11033 11033 11032 11032 11032 11032 11032 11032 11031 11031 11031 11031 11031 11030 11030 11030 11029 11029 11029 11028 11028 11027 11027 11026 11026 11025 11025 11024 11023 11023 11022
11026 11027 11028 11029 11029 11029 11030 11031 11031 11031 11031 11031 11031 11031 11031 11031 11030 11030 11030 11030 11030 11030 11030 11030 11030 11030 11030 11030 11029 11029 11028 11028 11028 11027 11027 11026 11026 11025 11025 11025 11024 11023
11023 11024 11025 11026 11026 11026 11027 11028 11028 11029 11029 11029 11029 11030 11030 11030 11029 11029 11029 11029 11029 11030 11030 11030 11030 11030 11030 11030 11030 11030 11029 11028 11028 11027 11027 11027 11026 11026 11025 11025 11025 11024
11020 11021 11022 11022 11023 11023 11024 11025 11026 11026 11027 11027 11028 11028 11029 11028 11028 11027 11028 11028 11028 11028 11029 11029 11029 11030 11030 11030 11030 11030 11030 11029 11028 11028 11027 11027 11027 11026 11026 11025 11025 11024
11015 11017 11018 11018 11019 11020 11021 11022 11023 11024 11024 11025 11025 11026 11026 11027 11026 11026 11027 11027 11026 11026 11027 11027 11028 11028 11029 11029 11029 11029 11029 11029 11029 11028 11028 11027 11027 11026 11026 11026 11025 11025
11011 11012 11013 11014 11015 11016 11017 11018 11019 11020 11021 11022 11022 11023 11024 11024 11025 11025 11025 11026 11026 11025 11025 11025 11026 11026 11027 11028 11028 11029 11029 11028 11028 11028 11027 11027 11026 11026 11026 11025 11025 11024
11006 11008 11009 11010 11011 11012 11013 11014 11015 11017 11018 11018 11019 11020 11021 11022 11022 11023 11023 11024 11024 11024 11024 11024 11024 11025 11025 11026 11027 11027 11027 11027 11027 11027 11027 11026 11026 11025 11025 11024 11024 11024
11001 11003 11004 11005 11006 11007 11008 11010 11011 11012 11013 11014 11015 11016 11017 11018 11019 11020 11020 11021 11021 11022 11022 11022 11023 11023 11024 11024 11025 11025 11025 11026 11027 11027 11026 11025 11025 11024 11024 11023 11023 11023
10995 10997 10998 10999 11001 11002 11003 11005 11006 11008 11009 11010 11011 11012 11014 11014 11015 11016 11017 11017 11018 11018 11019 11019 11021 11021 11022 11022 11022 11022 11023 11024 11025 11026 11026 11025 11024 11023 11022 11022 11021 11021
10990 10991 10993 10994 10996 10997 10998 11000 11001 11002 11004 11005 11006 11007 11009 11010 11011 11012 11012 11013 11014 11015 11015 11017 11018 11018 11018 11019 11019 11019 11020 11020 11022 11024 11024 11025 11024 11023 11022 11021 11020 11020
10985 10985 10987 10988 10990 10992 10993 10994 10995 10997 10998 10999 11000 11002 11004 11006 11006 11007 11008 11009 11010 11010 11012 11013 11014 11014 11014 11015 11015 11016 11016 11017 11018 11020 11021 11022 11023 11022 11021 11020 11019 11018
10979 10979 10981 10982 10984 10986 10987 10988 10990 10991 10992 10993 10995 10997 10999 11000 11002 11003 11004 11004 11005 11006 11007 11008 11009 11009 11010 11011 11011 11012 11012 11013 11014 11016 11017 11018 11019 11020 11019 11019 11018 11017
10971 10972 10974 10976 10979 10980 10981 10982 10984 10985 10986 10987 10989 10992 10994 10995 10996 10997 10998 10999 11001 11000 11000 11002 11003 11004 11006 11008 11008 11008 11009 11010 11010 11011 11013 11014 11015 11015 11015 11015 11015 11014
10963 10965 10967 10970 10972 10973 10973 10975 10978 10979 10981 10983 10984 10986 10988 10989 10989 10989 10991 10994 10994 10992 10992 10996 10999 11000 11001 11003 11004 11004 11005 11005 11006 11007 11008 11009 11011 11011 11011 11012 11011 11009
10955 10958 10960 10963 10964 10965 10966 10969 10971 10972 10974 10976 10977 10978 10981 10982 10981 10982 10985 10987 10986 10984 10987 10992 10994 10994 10996 10998 10999 11000 11000 11001 11002 11003 11004 11005 11005 11006 11007 11007 11005 11002